BRASILSAT B4            
1 26469U 00046A   19259.46876097 -.00000176  00000-0  00000+0 0  9994
2 26469   3.3761  80.2688 0002941  89.9714 261.6558  1.00272711 69903
NILESAT 102             
1 26470U 00046B   19259.03809074 -.00000160  00000-0  00000+0 0  9993
2 26470   3.4457  79.7749 0004087  43.1951 209.7519  0.98044381 69813
ARIANE 44LP DEB [SPELDA]
1 26471U 00046C   19258.50050363 -.00000208  00000-0 -89001-3 0  9990
2 26471   3.5605 340.0672 5510132  95.2594 326.5088  4.48596684241647
ARIANE 44LP R/B         
1 26490U 00046D   19259.48333545  .00003969  00000-0  13149-2 0  9999
2 26490   2.8948 234.5877 6984960 306.7995   7.4741  2.65274643170427